Theta_e
331 319 313 311 301 297 295 297 307 317 319 325 328 322 320 324 322 313 335 343 349 349 352 360 365 367 365 364 363 361 360 360 359 358 358 357 357 358 359 360 360 360 358 357 356 358 359 360 358
328 317 310 303 296 292 294 299 310 315 322 327 328 327 326 322 336 334 335 343 347 345 353 355 365 366 366 365 363 362 361 360 360 359 358 357 357 357 357 358 358 358 357 358 358 359 359 359 357
314 316 305 299 293 293 295 298 303 316 329 328 328 325 334 332 339 335 338 342 340 342 347 353 364 365 366 365 363 362 361 361 360 359 358 358 357 357 357 358 359 358 358 358 359 360 359 358 356
311 310 311 301 298 298 298 297 302 309 311 313 312 307 313 319 344 339 340 347 336 334 349 354 362 365 366 365 363 362 362 361 361 359 358 358 358 358 357 357 358 360 361 360 359 360 360 358 356
305 304 300 299 301 303 299 300 301 304 304 305 307 305 305 328 343 337 337 338 335 335 346 354 362 363 363 364 363 362 362 361 361 361 359 358 360 359 358 357 357 358 360 360 361 362 360 358 357
299 297 292 290 297 301 299 300 300 301 303 303 305 304 303 332 335 335 336 333 335 355 354 355 360 361 360 361 362 362 361 361 361 360 361 361 361 360 359 359 358 359 361 362 362 360 359 358 358
297 293 290 293 292 297 300 302 298 300 300 301 305 301 303 307 338 337 331 332 353 355 355 355 357 360 360 360 358 359 359 359 360 360 360 360 360 360 360 360 360 360 360 360 360 360 359 358 358
296 293 288 289 291 293 300 303 303 303 302 307 307 302 299 304 316 334 339 350 350 352 352 353 355 357 354 354 358 359 358 358 358 359 360 360 360 360 360 358 358 360 360 360 359 359 358 358 358
297 291 287 289 293 295 298 299 303 306 303 305 305 304 305 309 318 330 337 336 330 330 328 330 333 332 334 348 354 359 359 360 358 357 356 356 354 354 357 358 358 358 360 360 359 358 358 357 358
294 289 291 295 295 293 294 296 299 302 300 300 303 305 311 316 319 321 323 320 321 322 324 324 327 328 330 336 345 352 354 353 352 350 349 347 349 350 353 356 358 358 358 358 358 358 357 358 352
291 291 296 297 298 299 297 297 298 299 296 300 301 302 312 316 317 318 320 320 320 321 325 325 326 328 329 330 332 335 339 344 345 347 345 345 347 347 348 348 349 351 355 353 353 354 353 350 349
298 296 299 298 299 298 296 298 298 298 299 304 304 306 312 316 317 319 320 321 321 323 325 326 327 327 329 329 330 331 331 334 333 334 338 338 342 343 343 342 342 343 347 348 349 348 349 349 349
295 296 298 298 298 295 299 296 296 297 303 303 303 310 311 314 316 319 322 322 322 322 324 326 325 325 328 329 329 330 330 331 332 332 331 337 342 343 343 343 342 341 342 344 345 345 346 346 347
297 297 295 295 299 296 296 297 298 300 303 303 302 307 311 315 317 317 319 319 319 320 321 322 322 324 327 327 327 328 329 330 331 330 331 331 333 341 345 345 345 343 342 342 343 343 343 342 342
297 292 295 295 295 296 299 295 296 301 302 301 301 305 310 312 317 316 318 317 318 320 323 324 324 324 324 325 326 326 327 329 329 330 331 330 329 331 338 343 342 343 344 339 340 340 338 336 337
295 293 289 295 296 297 297 291 298 302 299 300 304 310 311 311 315 317 318 318 319 321 321 322 325 323 324 324 324 324 325 325 328 331 333 332 330 330 330 333 339 342 340 342 336 337 332 333 334
291 288 289 293 297 296 296 291 299 301 300 300 301 308 310 310 313 316 318 318 319 321 321 320 321 321 322 323 323 322 323 324 327 330 331 333 334 332 330 329 336 341 341 341 341 339 333 331 332
287 288 290 291 297 296 293 294 299 302 299 299 299 307 308 309 310 314 315 318 321 320 320 319 319 318 320 321 319 320 320 323 326 328 330 332 330 329 326 329 335 342 342 333 334 334 332 333 331
294 292 290 293 297 293 293 293 299 302 302 302 305 305 305 306 311 314 317 318 320 320 319 318 317 317 317 317 317 317 316 319 322 325 328 329 331 331 325 328 332 341 339 330 331 330 327 325 326
294 291 290 293 297 294 294 293 298 301 301 301 302 302 304 306 308 310 311 313 319 319 318 317 316 316 315 316 316 315 315 317 319 322 324 328 330 329 327 324 329 332 326 324 323 321 319 324 329
291 291 290 291 295 294 292 291 294 300 302 302 303 303 303 304 304 307 309 309 310 310 312 316 315 314 314 314 314 314 314 314 315 319 321 324 328 328 326 324 324 325 323 322 321 320 321 321 323
289 295 295 294 290 286 292 282 290 295 297 300 300 300 301 302 303 304 305 306 308 310 312 312 313 313 314 312 311 309 309 308 312 315 319 321 325 328 327 323 322 320 320 320 322 324 321 321 318
294 297 294 293 288 286 288 284 288 293 293 296 299 301 301 302 303 304 305 307 308 310 308 308 307 308 311 310 311 309 307 309 312 313 314 318 321 325 325 326 323 320 317 317 318 317 316 318 319
298 294 291 288 286 281 285 285 284 289 293 296 300 301 302 301 303 305 307 307 305 307 308 308 306 306 308 309 311 310 308 307 309 311 314 316 317 318 319 322 321 322 322 322 321 322 321 322 323
294 287 281 281 280 280 287 285 285 292 296 298 299 300 300 300 301 303 303 303 303 303 305 309 307 306 308 307 309 311 310 308 308 310 314 314 313 313 314 315 318 317 318 316 316 316 317 317 317
289 287 282 277 278 281 288 283 287 296 299 301 301 300 300 300 300 303 303 302 302 304 305 306 306 306 306 306 306 308 309 308 309 310 312 313 310 310 313 313 312 315 315 315 314 315 314 314 313
291 286 289 284 282 279 283 287 292 297 297 299 299 299 297 298 299 300 302 302 303 304 304 305 304 304 304 304 304 304 305 306 307 309 310 309 308 310 310 310 310 310 310 311 311 310 310 310 309
293 294 284 283 279 277 281 282 284 290 294 296 296 296 297 298 300 300 301 302 304 304 304 304 303 302 303 302 302 304 304 304 305 307 311 307 306 305 306 307 310 311 310 310 309 307 307 306 305
289 287 286 285 282 277 277 281 288 290 292 294 296 298 297 298 299 300 300 302 303 303 301 301 301 302 301 301 302 302 303 303 303 304 309 305 304 304 304 307 308 309 308 307 306 306 305 304 302
292 288 286 280 281 281 278 280 293 293 295 297 297 298 297 296 297 298 299 300 300 299 300 300 301 301 301 301 302 303 304 304 303 302 309 308 306 305 304 307 308 307 307 306 305 304 304 302 299
Wind_Speed
5 5 3 3 5 6 2 4 1 5 4 4 13 5 5 2 3 3 3 7 13 10 3 2 6 8 10 10 9 9 8 8 9 9 8 8 8 10 11 12 12 12 11 10 9 9 9 9 8
3 1 4 3 7 5 4 4 6 6 7 10 10 6 2 1 3 7 2 4 6 2 3 3 7 9 11 11 10 9 8 8 8 8 8 8 7 8 9 8 9 10 11 10 8 7 6 6 6
1 3 4 6 4 2 1 1 1 2 9 11 4 4 1 1 6 6 10 11 11 4 4 4 7 7 10 10 9 9 10 10 9 8 8 8 8 7 8 8 7 8 9 9 9 9 8 8 7
3 5 6 6 2 2 1 3 5 5 1 4 6 7 2 5 7 11 11 3 8 10 7 5 6 5 3 4 7 9 9 11 12 12 11 11 10 8 6 8 8 8 9 11 10 7 7 8 8
4 4 6 4 3 5 0 1 2 6 3 4 3 7 3 5 9 11 9 10 10 11 4 6 2 5 6 3 3 5 7 7 8 9 10 10 10 9 10 10 10 9 9 7 6 10 9 8 8
5 4 6 1 5 1 2 4 3 3 3 3 6 6 4 8 12 12 7 8 8 9 9 8 8 7 6 6 5 6 6 5 5 6 8 8 9 10 11 11 11 11 11 10 11 10 10 10 10
6 5 4 2 3 5 2 9 3 6 1 2 5 6 4 2 8 9 2 6 10 9 11 8 7 5 4 5 6 7 7 7 7 7 7 8 9 9 10 11 12 12 13 12 11 11 11 11 11
6 6 2 2 1 1 5 3 5 2 3 1 4 2 5 1 6 6 6 8 9 10 9 9 7 5 4 3 7 8 8 7 8 7 9 8 9 10 12 11 11 13 13 13 13 14 13 12 12
3 6 1 2 2 3 7 5 4 4 9 4 4 5 6 8 10 16 14 11 11 11 9 8 6 5 6 3 5 8 9 9 8 6 8 8 4 6 10 12 14 15 15 15 16 16 15 14 14
5 4 7 5 3 2 1 2 4 5 5 5 5 10 8 10 17 18 13 10 8 5 6 6 7 7 7 7 7 6 6 4 5 4 5 5 6 7 10 13 16 17 17 18 18 17 15 13 6
3 5 5 2 4 6 4 2 1 8 2 7 10 9 11 16 14 17 11 10 9 5 5 6 6 6 7 5 4 3 3 3 4 6 6 6 7 6 6 5 6 7 12 8 9 10 8 8 6
2 1 6 4 4 2 3 0 3 3 8 9 10 13 13 18 16 16 13 9 7 8 6 5 5 6 5 3 3 4 4 5 4 5 7 5 5 7 6 5 7 6 5 6 7 5 7 7 7
3 2 2 3 7 2 2 2 2 3 6 6 5 11 11 16 12 7 9 6 6 6 6 6 3 5 5 6 5 5 5 4 6 6 5 4 6 7 6 7 6 7 5 6 6 6 7 8 7
2 3 1 2 1 1 1 2 2 3 6 7 7 10 7 15 14 9 7 7 6 6 6 6 6 6 4 4 5 5 4 5 5 5 6 8 6 7 8 8 7 8 6 6 7 9 8 7 4
1 2 5 4 1 1 4 4 3 6 5 9 9 8 8 6 7 10 9 9 8 5 6 7 7 7 7 6 4 3 3 5 5 5 7 7 7 9 10 8 9 9 7 8 7 7 4 3 4
6 7 6 9 6 5 5 8 4 8 4 8 8 10 8 5 6 6 6 7 7 8 8 7 8 7 7 6 4 3 3 4 4 6 7 7 6 8 9 9 9 10 8 6 4 5 2 4 5
7 1 2 5 6 1 6 5 7 4 4 9 9 10 9 7 3 2 4 8 8 7 7 8 6 6 5 5 5 6 7 5 4 4 5 10 10 10 8 8 10 11 7 6 4 1 4 4 5
1 4 3 4 7 6 7 8 16 16 9 7 5 9 8 7 8 8 8 8 7 6 6 6 4 6 5 4 4 4 5 6 7 8 8 12 7 11 10 8 10 9 7 4 4 6 5 4 4
7 5 2 2 3 2 6 6 13 14 17 13 16 13 13 13 7 9 9 7 6 4 5 3 6 7 5 3 4 4 4 4 6 8 13 13 14 11 10 8 8 7 7 6 6 4 5 2 2
6 3 3 4 4 4 8 10 6 17 15 13 16 15 12 8 10 8 8 6 4 3 6 7 6 5 4 2 2 1 3 4 3 6 10 12 13 15 10 10 8 4 2 5 4 6 2 2 1
3 5 2 3 3 1 4 6 8 9 15 16 14 10 8 8 7 6 7 7 7 7 6 4 5 5 3 4 2 3 3 3 4 8 8 10 13 13 13 12 8 6 2 2 4 4 7 3 3
3 2 1 2 5 1 4 3 3 4 8 9 7 7 6 5 4 4 4 4 4 4 6 6 7 7 6 7 4 4 2 2 3 4 6 7 10 12 15 10 10 6 5 4 3 4 4 3 3
3 1 3 2 3 4 3 5 5 3 3 2 2 3 3 3 3 3 4 4 4 5 5 5 6 6 5 6 5 3 4 3 4 4 7 8 9 9 11 14 10 8 4 4 3 3 1 1 0
3 4 7 5 3 2 3 5 5 5 6 3 2 3 3 1 1 1 3 5 3 5 6 6 7 6 7 6 5 4 5 6 5 6 6 8 5 6 8 10 9 9 6 5 2 2 2 2 1
8 8 5 6 6 6 1 1 7 4 5 7 8 6 3 1 4 5 7 7 7 7 7 7 7 7 7 7 6 5 6 6 6 6 7 9 6 5 7 7 7 6 7 8 6 3 5 4 3
3 6 7 4 4 6 7 5 5 6 4 6 5 4 1 5 5 6 7 7 7 9 9 9 8 8 8 7 7 6 6 4 5 5 4 4 3 4 6 7 5 6 5 5 5 2 4 3 4
2 1 2 4 3 2 4 3 4 4 3 3 4 1 2 4 4 5 7 6 7 8 8 6 7 7 7 6 6 7 6 7 6 7 6 4 4 4 5 8 6 6 6 6 6 4 5 5 4
5 3 2 4 2 4 5 3 6 5 8 7 3 3 5 4 6 7 6 7 6 6 5 6 6 7 7 7 6 6 8 7 7 7 8 6 5 4 5 7 6 6 5 6 5 4 5 4 2
6 4 6 4 4 4 3 7 3 5 5 7 5 6 5 6 6 6 6 6 6 6 7 7 7 7 7 7 7 7 9 8 7 6 6 4 4 4 5 6 6 5 5 5 4 4 5 6 6
3 4 6 6 6 2 4 8 8 3 7 7 5 3 2 3 4 6 6 7 8 8 8 7 7 7 7 7 8 10 11 8 7 6 2 3 3 3 5 5 5 5 4 5 5 5 6 6 6
Wind_Direction
315 296 143 56 49 60 10 33 171 99 153 210 157 151 186 111 169 170 344 13 31 14 349 150 172 164 154 148 147 145 149 146 142 137 134 136 140 143 150 153 153 155 158 163 167 173 177 177 173
318 105 45 75 76 44 333 291 143 199 186 151 178 120 154 102 102 101 322 286 80 29 330 278 217 180 165 160 159 157 157 153 150 150 149 153 157 157 157 163 164 165 166 168 172 184 196 204 205
257 51 79 87 104 117 27 54 101 2 124 146 161 51 7 327 83 141 248 221 149 180 192 201 249 231 178 164 162 167 165 162 163 166 169 171 173 174 172 174 178 179 181 181 182 187 194 202 217
51 14 28 70 343 280 179 314 153 158 47 72 115 71 42 317 141 181 214 193 182 165 162 190 229 275 278 159 179 184 180 175 176 182 184 183 182 182 195 199 199 206 206 194 195 207 210 214 213
37 56 57 77 290 260 201 34 195 138 130 9 157 137 87 35 103 168 183 209 16 30 133 132 106 355 330 311 237 226 213 200 191 190 197 199 192 196 195 201 211 223 226 234 235 205 203 225 238
42 98 62 51 256 324 343 69 103 76 167 163 77 98 65 124 150 204 270 17 13 34 54 69 68 33 359 329 303 282 269 253 238 217 220 222 219 206 208 213 214 218 229 230 225 235 228 222 231
99 75 182 230 268 336 146 128 134 147 116 351 156 97 78 137 218 179 162 29 22 52 69 62 63 51 3 327 323 300 292 282 267 258 245 238 234 238 230 222 223 222 221 234 241 238 239 236 236
102 90 55 255 311 349 348 110 147 119 120 310 19 112 108 34 86 135 127 68 61 51 45 53 43 16 326 330 317 296 288 294 285 280 279 271 263 252 245 240 234 235 238 235 235 239 240 239 236
117 65 153 286 109 331 339 78 24 15 93 45 34 72 111 141 112 87 100 74 69 59 53 55 50 21 12 349 320 307 307 303 296 297 295 283 259 261 254 244 237 236 241 241 238 238 238 243 249
93 108 215 211 154 152 266 109 172 102 74 39 73 76 97 92 86 91 95 89 75 63 60 56 48 31 26 30 6 344 329 315 303 285 259 257 253 250 250 246 245 240 240 240 241 240 238 240 237
131 179 195 202 180 173 137 65 41 131 128 199 165 137 120 104 98 106 111 123 135 147 90 67 60 40 33 22 5 354 339 317 298 287 276 267 266 255 248 251 252 246 244 245 248 244 234 226 222
178 242 161 195 169 101 128 43 74 169 212 182 175 147 132 123 132 137 138 138 119 103 102 83 61 53 41 23 17 345 352 343 330 309 293 287 275 265 248 242 247 243 234 230 235 238 231 226 226
105 255 202 140 132 148 47 124 204 241 220 193 147 129 138 133 137 124 120 111 129 137 161 163 113 60 28 17 353 349 340 332 315 316 302 291 291 274 269 251 243 238 220 220 231 229 228 226 218
166 127 360 333 284 156 126 303 33 358 216 209 138 138 133 130 138 129 143 157 173 154 139 139 77 74 53 26 356 338 313 289 296 300 300 311 302 293 278 266 249 244 221 221 222 230 226 225 220
88 56 0 320 260 346 137 3 25 309 220 224 108 135 116 106 115 138 155 148 132 99 103 74 65 46 44 15 360 340 313 323 315 302 292 287 294 294 284 272 265 253 235 214 217 235 227 223 229
42 49 40 303 347 6 80 270 281 350 15 262 122 135 126 105 141 159 146 118 103 98 72 49 42 31 19 3 330 300 324 312 303 312 313 308 283 277 288 280 264 258 247 220 223 247 243 232 215
6 97 23 334 15 95 57 291 295 337 329 284 141 144 130 117 136 120 82 67 64 72 72 60 44 35 18 347 321 338 342 335 326 304 316 321 322 323 292 275 269 259 247 194 184 263 226 226 225
237 35 40 59 325 51 16 346 350 345 318 268 177 101 96 79 34 35 48 73 80 78 79 71 51 32 7 341 303 4 342 335 332 331 329 329 321 322 322 285 267 254 238 181 175 192 211 228 242
103 97 114 224 335 69 44 26 6 356 35 70 93 84 74 74 79 69 74 92 95 83 99 99 55 9 5 329 355 357 332 319 334 333 332 335 328 325 316 314 280 258 226 209 177 149 227 272 354
80 94 346 291 322 114 89 37 15 28 40 54 79 89 89 81 59 43 36 47 67 94 42 35 34 6 6 357 342 294 293 306 307 330 328 334 329 328 327 325 319 296 153 171 137 134 157 232 144
62 124 197 218 326 21 104 38 6 20 47 56 52 65 61 68 68 41 38 29 27 20 6 11 346 345 6 359 350 339 324 323 335 347 332 333 330 336 333 331 338 348 307 263 154 154 158 176 255
107 261 164 342 51 247 46 254 7 24 38 39 32 49 63 62 53 49 47 39 21 5 1 355 347 344 353 355 19 19 300 300 278 297 310 326 333 344 345 341 342 353 355 31 81 99 116 102 216
161 212 11 331 121 87 350 80 247 143 56 340 4 63 53 58 77 53 28 11 331 348 332 327 348 351 339 349 340 354 336 287 295 301 324 336 340 347 347 343 333 345 360 358 8 66 99 130 244
106 38 39 52 70 46 215 126 265 191 178 201 238 209 183 144 141 292 290 293 298 333 356 349 353 345 340 342 335 322 331 327 328 320 343 335 333 331 345 340 339 342 351 7 354 268 207 243 125
65 48 352 358 6 229 12 19 234 223 190 176 189 195 191 66 27 6 355 356 346 338 340 340 348 334 334 8 359 342 324 315 305 309 325 326 328 329 330 327 337 351 347 338 329 310 131 121 100
62 136 150 248 228 255 347 263 250 218 125 154 187 177 62 16 337 318 318 349 345 347 343 342 349 347 346 359 351 335 310 278 278 277 281 285 283 303 304 308 323 335 346 330 307 332 351 37 88
154 36 188 129 27 42 250 314 356 65 119 195 210 24 324 313 291 335 339 341 335 329 328 332 332 323 330 326 323 317 306 301 288 287 276 276 287 292 314 307 321 334 346 359 349 344 4 11 37
102 164 17 10 249 273 295 285 239 225 222 219 197 214 245 282 323 309 320 331 317 312 310 295 297 288 289 301 298 301 287 286 286 280 283 268 278 299 315 307 319 340 353 2 357 1 342 32 23
3 13 46 111 126 199 308 272 298 271 223 161 183 231 260 293 291 319 342 337 313 292 286 282 293 296 297 309 302 291 292 285 281 283 280 271 289 312 315 309 324 343 354 359 360 13 20 30 10
105 107 97 100 289 240 160 265 341 72 116 142 187 230 271 348 18 7 342 309 296 287 291 290 289 280 288 290 291 293 294 284 289 295 299 303 316 313 308 316 322 8 4 12 24 29 26 27 23